Wind_Speed
110 114 113 113 113 110 107 107 106 105 106 104 106 106 106 107 107 103 100 97 100 100 93 91 90 84 71 66 64 59 54 49 43 39 35 34 33 33
117 115 110 109 109 109 109 108 106 106 105 104 103 103 102 100 97 96 97 97 96 92 89 85 79 70 66 63 61 57 54 47 41 39 34 34 34 34
112 110 109 107 107 106 104 102 101 100 100 100 100 98 97 97 97 94 92 90 90 88 86 76 71 68 60 61 59 56 52 45 40 39 35 32 31 31
109 105 105 105 105 102 101 102 99 100 100 101 99 98 97 95 92 90 87 86 82 81 77 73 68 63 58 57 59 54 51 45 41 39 39 38 35 33
105 103 102 101 100 99 100 99 98 98 97 96 95 94 93 92 92 91 88 83 78 72 73 66 64 60 56 55 58 54 53 48 42 40 40 41 40 37
106 105 103 100 98 98 96 97 97 97 96 95 94 93 92 92 91 88 80 77 75 71 70 62 58 58 53 56 54 55 53 49 44 43 42 41 42 42
107 106 104 102 101 100 99 97 98 98 98 98 95 93 90 87 85 79 74 71 69 66 62 56 57 56 56 54 53 54 53 50 49 46 45 43 43 44
106 105 104 103 102 100 98 98 96 94 93 91 88 83 81 78 77 74 71 71 66 60 55 53 54 57 55 56 55 55 57 54 51 47 47 46 45 45
108 106 105 102 100 97 93 92 89 86 83 82 79 77 75 73 73 71 69 66 61 52 51 50 55 58 58 58 56 56 58 56 53 52 51 47 48 47
98 95 92 91 90 89 86 83 83 80 77 76 74 72 71 69 65 63 62 57 51 49 48 54 57 59 59 58 56 58 60 59 55 56 53 51 50 48
91 89 87 86 85 82 78 77 75 73 70 67 68 65 62 59 57 57 53 48 45 48 54 56 59 61 61 61 59 62 64 63 58 58 54 51 49 48
87 86 83 81 79 77 73 71 69 66 65 64 62 57 54 55 51 48 47 47 48 53 55 57 62 64 63 63 62 64 66 64 61 60 55 49 48 48
73 71 70 69 67 65 64 63 61 59 58 55 53 52 50 47 45 45 47 51 54 56 60 63 65 66 65 66 65 69 68 62 64 58 53 51 50 52
60 60 58 56 56 55 54 54 53 52 51 50 49 48 46 44 45 48 52 56 61 60 62 65 64 66 68 66 68 71 63 65 62 57 54 53 54 56
50 49 48 48 47 47 47 47 47 47 46 46 46 45 45 47 50 55 60 63 64 66 65 63 66 68 67 69 70 65 66 64 60 56 55 56 58 61
42 41 40 39 39 40 41 41 42 43 44 46 47 49 53 55 58 62 64 64 61 62 65 67 70 71 71 69 70 69 66 64 59 57 60 61 63 67
36 36 35 36 36 37 38 38 38 39 41 43 46 49 52 54 55 56 58 60 63 67 68 70 71 69 67 69 70 68 67 63 58 58 61 66 69 71
34 33 33 33 34 36 37 39 41 44 46 46 47 50 54 57 59 63 65 66 67 68 68 66 67 70 69 68 68 68 65 62 62 63 66 70 73 69
33 32 33 35 37 39 41 43 44 47 49 52 56 55 55 58 59 61 62 64 65 66 68 68 67 66 67 67 67 66 66 66 68 70 70 69 69 72
33 33 34 37 37 39 40 41 42 44 47 49 51 54 57 60 62 63 65 67 68 69 68 66 65 65 66 68 69 72 70 71 70 69 68 66 67 69
38 38 38 39 41 43 44 46 48 51 53 55 55 57 59 62 64 65 66 66 68 69 71 70 69 69 71 71 73 74 72 69 67 66 66 66 65 65
43 44 45 46 47 47 50 51 51 53 55 58 61 62 64 67 69 70 70 72 73 73 74 74 73 70 68 68 70 71 69 66 64 64 65 62 60 61
47 48 50 51 50 49 50 52 53 54 56 59 62 65 65 67 68 68 69 69 69 68 68 68 67 66 65 64 64 64 65 65 63 62 61 56 56 55
Wind_Direction
275 278 279 279 280 282 283 283 284 286 287 288 288 290 291 293 295 297 299 300 301 304 305 306 307 310 310 312 314 316 317 314 309 303 295 288 285 282
277 279 281 281 282 282 283 285 285 285 286 288 289 290 292 293 294 297 298 300 301 302 304 307 306 307 307 308 312 314 316 312 306 302 295 290 286 283
279 280 281 281 282 283 283 284 285 285 286 288 289 290 292 293 296 297 298 299 299 300 302 304 305 303 302 307 309 312 314 312 303 297 293 291 287 285
278 278 279 279 281 282 283 284 287 287 287 288 290 290 290 292 293 295 295 296 299 300 300 303 301 299 300 303 307 310 314 313 305 296 288 286 285 283
277 278 278 278 279 280 281 284 284 285 286 287 287 287 289 291 293 293 293 294 296 300 299 298 298 294 298 300 305 307 311 309 306 299 290 283 280 279
279 280 280 280 281 282 282 282 282 283 284 285 286 288 289 290 290 290 291 292 295 295 295 294 290 291 294 299 303 308 309 309 303 303 294 286 280 277
276 278 279 280 280 281 281 282 282 282 283 283 284 285 286 286 287 288 290 292 292 292 290 287 286 289 294 298 300 304 305 307 303 299 297 286 280 276
277 278 280 281 281 280 280 280 280 281 282 282 283 282 284 285 284 288 287 287 288 286 284 282 287 288 293 296 300 302 304 306 303 300 298 288 281 279
277 277 278 279 280 280 281 281 282 282 282 281 281 282 282 283 283 284 286 285 283 280 277 283 283 288 292 294 299 301 304 306 303 303 301 291 283 280
276 277 277 278 279 279 279 280 280 281 282 281 282 281 282 283 283 283 281 280 277 274 279 279 283 288 290 293 298 302 302 304 300 303 299 293 287 282
277 278 277 276 276 277 279 279 278 279 280 280 279 281 281 281 279 277 275 271 273 274 276 280 284 287 290 294 297 300 300 300 300 302 296 292 286 283
277 276 277 277 277 276 276 276 277 278 278 279 281 281 280 277 275 272 269 270 271 274 277 280 286 286 290 295 296 297 297 298 300 298 296 290 285 283
277 276 276 276 275 274 273 273 274 275 276 277 277 275 273 270 269 268 271 273 272 275 277 281 283 286 292 292 294 296 298 298 300 296 293 288 285 286
277 277 276 274 273 273 273 272 271 272 272 271 270 268 266 265 267 268 267 269 272 275 279 282 286 290 293 293 293 294 295 298 296 295 291 286 286 287
273 272 272 273 273 272 271 270 271 270 269 268 266 264 261 262 263 266 270 273 276 279 283 288 292 293 294 294 292 292 295 295 295 293 288 286 287 289
271 270 270 271 270 270 270 270 270 268 269 268 268 266 268 269 270 274 276 280 285 286 287 288 291 290 289 289 290 293 294 294 293 291 289 289 289 291
271 269 268 269 270 270 270 269 270 270 270 270 270 271 272 274 276 278 277 279 282 284 285 286 286 287 288 289 291 292 293 292 291 289 289 290 292 292
274 272 269 270 269 268 268 269 270 271 273 276 277 276 275 276 277 279 280 281 283 283 283 283 285 287 289 290 291 291 292 292 291 291 292 293 294 293
275 275 273 275 276 276 276 276 276 275 276 277 278 278 278 278 279 279 279 281 282 283 284 285 286 287 289 289 288 289 290 291 292 293 293 293 294 293
273 276 276 277 278 280 280 280 280 280 280 281 282 282 282 281 282 282 282 282 283 284 286 287 287 287 288 288 289 288 290 290 291 291 291 292 291 291
271 272 273 275 276 278 280 282 282 283 284 286 286 286 286 286 285 285 285 286 286 285 285 285 285 286 286 287 288 289 289 291 290 290 291 292 293 292
271 272 273 275 278 279 281 284 285 287 287 287 286 285 284 283 283 282 281 281 280 281 282 284 285 286 286 287 287 289 291 289 289 290 290 291 291 289
269 271 273 275 277 278 281 283 284 284 284 284 284 285 286 284 284 283 281 282 283 282 282 283 284 285 286 285 286 288 287 288 290 290 289 288 288 291
Height
10664 10662 10660 10657 10653 10650 10647 10642 10640 10637 10633 10632 10624 10618 10612 10606 10599 10592 10582 10577 10568 10561 10556 10549 10541 10537 10529 10522 10516 10510 10503 10497 10491 10487 10484 10482 10480 10478
10641 10639 10638 10634 10631 10628 10624 10620 10618 10615 10612 10607 10602 10595 10590 10585 10578 10574 10565 10558 10552 10544 10540 10534 10527 10522 10516 10510 10504 10499 10492 10486 10482 10478 10474 10473 10471 10469
10617 10617 10614 10612 10608 10605 10602 10599 10594 10591 10589 10586 10582 10576 10569 10563 10559 10554 10547 10541 10536 10530 10525 10518 10513 10508 10503 10498 10493 10487 10482 10476 10472 10469 10467 10464 10462 10460
10593 10593 10591 10589 10585 10583 10578 10575 10572 10568 10566 10563 10560 10556 10551 10545 10540 10535 10530 10525 10520 10514 10508 10503 10498 10494 10489 10486 10480 10476 10471 10467 10463 10459 10457 10454 10452 10450
10568 10567 10565 10564 10561 10559 10556 10554 10550 10547 10544 10541 10538 10534 10530 10526 10521 10516 10512 10507 10502 10496 10492 10486 10483 10479 10476 10473 10468 10465 10461 10456 10452 10449 10445 10443 10442 10441
10542 10540 10540 10539 10537 10536 10535 10532 10529 10525 10522 10519 10516 10512 10509 10506 10500 10495 10491 10488 10483 10480 10476 10472 10468 10465 10463 10460 10455 10452 10448 10444 10440 10436 10433 10431 10428 10427
10519 10517 10515 10515 10513 10511 10510 10509 10504 10501 10500 10497 10495 10492 10489 10484 10480 10476 10473 10470 10466 10462 10459 10456 10453 10452 10450 10447 10444 10441 10436 10433 10428 10423 10419 10417 10416 10415
10494 10493 10492 10491 10487 10484 10485 10482 10480 10477 10475 10473 10470 10468 10465 10463 10459 10456 10454 10451 10449 10446 10443 10442 10439 10437 10436 10433 10430 10427 10423 10418 10414 10410 10406 10402 10401 10400
10469 10468 10467 10466 10462 10460 10461 10457 10455 10453 10451 10449 10448 10446 10444 10442 10439 10437 10435 10432 10431 10431 10429 10427 10424 10423 10421 10419 10416 10412 10407 10402 10398 10394 10390 10387 10385 10384
10445 10444 10444 10442 10438 10437 10436 10435 10433 10432 10430 10428 10427 10425 10424 10423 10421 10419 10417 10416 10415 10415 10415 10412 10410 10408 10406 10403 10400 10396 10392 10388 10384 10379 10374 10371 10368 10367
10419 10420 10419 10417 10415 10415 10414 10412 10411 10411 10409 10408 10406 10407 10406 10404 10402 10401 10401 10401 10401 10400 10398 10398 10395 10393 10390 10388 10384 10380 10375 10371 10367 10363 10359 10355 10352 10350
10396 10396 10395 10394 10394 10394 10393 10393 10392 10391 10390 10390 10390 10389 10389 10387 10387 10386 10386 10385 10386 10386 10384 10382 10380 10376 10374 10372 10367 10364 10359 10354 10349 10345 10341 10338 10335 10333
10375 10374 10372 10372 10373 10373 10373 10373 10374 10373 10373 10374 10374 10374 10373 10373 10372 10373 10372 10372 10371 10369 10367 10365 10362 10360 10358 10354 10350 10346 10342 10336 10332 10327 10324 10320 10317 10315
10355 10354 10354 10354 10354 10355 10355 10356 10357 10358 10358 10358 10359 10359 10359 10359 10358 10359 10357 10356 10354 10353 10352 10349 10347 10344 10339 10337 10332 10328 10324 10319 10314 10311 10305 10301 10299 10296
10340 10339 10340 10339 10340 10340 10342 10342 10342 10343 10344 10345 10345 10345 10345 10344 10344 10342 10341 10340 10339 10338 10336 10334 10329 10324 10320 10316 10310 10309 10305 10300 10296 10293 10286 10283 10280 10276
10327 10327 10327 10328 10328 10329 10329 10330 10330 10331 10332 10332 10332 10332 10331 10330 10329 10328 10326 10326 10326 10323 10319 10315 10310 10305 10302 10297 10289 10287 10284 10280 10278 10272 10265 10262 10259 10254
10316 10317 10316 10316 10316 10317 10318 10318 10318 10318 10319 10318 10318 10317 10317 10316 10315 10313 10312 10310 10308 10305 10300 10296 10291 10287 10282 10277 10270 10266 10262 10259 10258 10254 10249 10241 10236 10231
10305 10306 10306 10306 10306 10306 10306 10306 10306 10306 10306 10305 10304 10303 10301 10299 10298 10295 10292 10290 10287 10285 10281 10278 10272 10267 10262 10255 10250 10244 10242 10239 10235 10232 10228 10220 10210 10208
10295 10295 10295 10295 10295 10295 10295 10294 10294 10293 10292 10291 10289 10287 10284 10282 10279 10276 10273 10269 10266 10262 10259 10255 10251 10248 10242 10235 10230 10227 10222 10218 10214 10209 10205 10200 10191 10179
10284 10284 10284 10284 10283 10283 10282 10281 10281 10279 10277 10275 10273 10270 10267 10263 10260 10257 10254 10248 10244 10240 10236 10233 10230 10226 10221 10215 10208 10202 10203 10199 10195 10189 10183 10179 10172 10161
10273 10273 10273 10273 10272 10271 10269 10268 10266 10264 10261 10259 10255 10251 10248 10244 10239 10236 10232 10228 10223 10218 10212 10209 10209 10205 10201 10196 10188 10180 10177 10176 10173 10167 10161 10155 10149 10139
10262 10262 10261 10261 10260 10258 10256 10254 10251 10249 10246 10242 10238 10234 10230 10224 10219 10215 10211 10206 10202 10197 10192 10188 10186 10183 10180 10176 10168 10160 10155 10153 10151 10145 10139 10136 10131 10123
10249 10249 10248 10248 10246 10244 10242 10239 10236 10233 10230 10225 10219 10214 10209 10203 10198 10193 10188 10185 10181 10176 10172 10167 10164 10161 10158 10155 10151 10143 10136 10130 10128 10124 10117 10118 10114 10110